Retour au catalogue

COSMOS 249

ActifMilitaireUNKNOWN
NORAD 3504·PAYLOAD·🇷🇺 Russia

Lancé Oct 20, 1968 depuis Baikonur Cosmodrome

Loading…

Prochains Passages (prochaines 24 heures)

TLE

FraisSource: Space-Track

Époque: Sep 14, 2026, 10:16 UTC

1 03504U 68091A   26257.42792906 -.00000070  00000-0  15529-4 0  9991
2 03504  62.3420  48.1157 1015350  39.5500 327.5275 12.97206844732066

Suivez COSMOS 249 en temps réel avec AllMySat

Download on the App Store